QPF
0.01 0.01 0.01 0.01 0.01 0.00 0.01 0.01 0.02 0.02 0.02 0.02 0.02 0.02 0.03 0.04 0.04 0.04 0.04 0.03 0.03 0.03 0.03 0.04 0.04 0.04 0.03 0.03 0.04 0.04 0.04 0.03 0.03 0.02 0.01 0.01 0.01 0.01 0.00 0.00 0.01 0.01 0.01
0.01 0.01 0.01 0.02 0.01 0.01 0.01 0.01 0.01 0.01 0.01 0.01 0.02 0.02 0.02 0.02 0.02 0.02 0.02 0.02 0.02 0.02 0.02 0.03 0.03 0.02 0.02 0.03 0.04 0.04 0.04 0.03 0.02 0.02 0.01 0.01 0.01 0.00 0.00 0.00 0.00 0.00 0.01
0.01 0.02 0.02 0.03 0.03 0.02 0.01 0.01 0.01 0.01 0.01 0.01 0.01 0.02 0.02 0.02 0.02 0.02 0.02 0.01 0.01 0.01 0.02 0.02 0.02 0.02 0.03 0.04 0.03 0.03 0.02 0.02 0.02 0.01 0.01 0.01 0.00 0.00 0.00 0.00 0.00 0.01 0.01
0.01 0.02 0.02 0.03 0.03 0.03 0.02 0.02 0.01 0.01 0.01 0.01 0.02 0.02 0.02 0.02 0.02 0.02 0.03 0.02 0.02 0.01 0.02 0.02 0.03 0.03 0.03 0.03 0.03 0.02 0.02 0.02 0.02 0.02 0.01 0.01 0.01 0.01 0.01 0.01 0.01 0.01 0.01
0.01 0.02 0.02 0.02 0.03 0.03 0.03 0.03 0.02 0.01 0.01 0.01 0.01 0.02 0.02 0.01 0.01 0.01 0.02 0.02 0.02 0.02 0.02 0.02 0.02 0.03 0.02 0.02 0.02 0.02 0.02 0.02 0.02 0.02 0.02 0.02 0.02 0.02 0.02 0.02 0.01 0.01 0.01
0.01 0.02 0.02 0.02 0.03 0.04 0.04 0.04 0.03 0.01 0.01 0.01 0.01 0.01 0.02 0.02 0.02 0.02 0.02 0.02 0.02 0.02 0.02 0.02 0.02 0.02 0.01 0.01 0.01 0.01 0.01 0.01 0.02 0.02 0.02 0.02 0.02 0.02 0.02 0.02 0.01 0.01 0.01
0.01 0.02 0.02 0.02 0.03 0.03 0.03 0.04 0.03 0.02 0.01 0.01 0.01 0.01 0.02 0.02 0.02 0.02 0.02 0.02 0.02 0.02 0.02 0.02 0.01 0.01 0.02 0.01 0.01 0.01 0.01 0.01 0.01 0.02 0.02 0.03 0.02 0.02 0.02 0.02 0.02 0.02 0.01
0.01 0.02 0.02 0.02 0.02 0.02 0.03 0.03 0.03 0.02 0.02 0.01 0.01 0.01 0.01 0.02 0.02 0.02 0.02 0.02 0.01 0.01 0.02 0.02 0.02 0.01 0.01 0.01 0.01 0.01 0.01 0.01 0.01 0.01 0.01 0.01 0.01 0.01 0.01 0.02 0.01 0.01 0.01
0.01 0.02 0.02 0.02 0.02 0.03 0.02 0.02 0.02 0.02 0.02 0.02 0.02 0.02 0.01 0.01 0.02 0.02 0.02 0.02 0.02 0.01 0.01 0.01 0.01 0.01 0.01 0.01 0.01 0.00 0.00 0.00 0.00 0.00 0.00 0.00 0.01 0.01 0.01 0.02 0.01 0.01 0.01
0.01 0.01 0.02 0.02 0.03 0.03 0.02 0.02 0.02 0.02 0.02 0.02 0.02 0.02 0.01 0.01 0.01 0.02 0.02 0.02 0.02 0.02 0.01 0.01 0.02 0.01 0.01 0.01 0.00 0.00 0.00 0.00 0.00 0.00 0.00 0.00 0.00 0.00 0.01 0.02 0.02 0.03 0.02
0.01 0.01 0.01 0.02 0.03 0.02 0.02 0.02 0.01 0.02 0.02 0.02 0.02 0.02 0.02 0.02 0.01 0.01 0.02 0.01 0.01 0.01 0.01 0.01 0.01 0.01 0.01 0.01 0.00 0.00 0.00 0.00 0.00 0.00 0.00 0.00 0.00 0.00 0.00 0.01 0.02 0.03 0.03
0.00 0.01 0.01 0.02 0.02 0.02 0.02 0.02 0.02 0.02 0.02 0.02 0.03 0.02 0.02 0.02 0.02 0.01 0.01 0.02 0.01 0.01 0.01 0.01 0.01 0.01 0.01 0.01 0.00 0.00 0.01 0.00 0.00 0.00 0.00 0.00 0.00 0.00 0.01 0.01 0.01 0.02 0.02
0.01 0.01 0.01 0.01 0.02 0.02 0.01 0.02 0.02 0.02 0.02 0.02 0.02 0.02 0.02 0.01 0.01 0.01 0.01 0.02 0.02 0.01 0.01 0.01 0.01 0.01 0.01 0.01 0.00 0.00 0.00 0.00 0.00 0.00 0.00 0.00 0.00 0.01 0.01 0.01 0.01 0.01 0.01
0.01 0.01 0.01 0.01 0.01 0.01 0.01 0.02 0.01 0.01 0.01 0.01 0.02 0.02 0.01 0.01 0.01 0.01 0.01 0.01 0.01 0.01 0.01 0.01 0.01 0.01 0.01 0.01 0.00 0.00 0.00 0.00 0.00 0.00 0.00 0.00 0.00 0.00 0.00 0.01 0.01 0.01 0.01
0.01 0.01 0.01 0.01 0.01 0.01 0.01 0.01 0.01 0.01 0.01 0.01 0.01 0.01 0.01 0.01 0.01 0.00 0.01 0.00 0.01 0.01 0.01 0.00 0.00 0.00 0.01 0.00 0.00 0.00 0.01 0.01 0.01 0.01 0.00 0.01 0.01 0.01 0.01 0.01 0.01 0.01 0.01
0.02 0.01 0.01 0.01 0.01 0.01 0.01 0.01 0.01 0.01 0.01 0.01 0.01 0.01 0.01 0.01 0.01 0.01 0.01 0.01 0.01 0.01 0.01 0.00 0.00 0.00 0.00 0.01 0.01 0.01 0.01 0.01 0.01 0.01 0.01 0.01 0.01 0.01 0.01 0.01 0.01 0.01 0.01
0.02 0.02 0.01 0.01 0.01 0.01 0.01 0.01 0.01 0.01 0.01 0.01 0.01 0.01 0.01 0.01 0.01 0.01 0.01 0.01 0.01 0.01 0.01 0.01 0.00 0.00 0.00 0.00 0.00 0.00 0.00 0.00 0.01 0.01 0.01 0.01 0.01 0.01 0.01 0.01 0.01 0.01 0.01
0.02 0.03 0.02 0.02 0.02 0.01 0.01 0.01 0.01 0.01 0.00 0.00 0.00 0.01 0.01 0.01 0.01 0.01 0.01 0.01 0.01 0.01 0.01 0.01 0.01 0.00 0.00 0.00 0.00 0.00 0.00 0.00 0.01 0.01 0.01 0.01 0.01 0.01 0.01 0.01 0.01 0.01 0.01
0.01 0.02 0.02 0.02 0.02 0.02 0.01 0.01 0.00 0.00 0.00 0.00 0.00 0.00 0.01 0.01 0.01 0.01 0.01 0.01 0.01 0.00 0.00 0.00 0.01 0.01 0.01 0.00 0.00 0.00 0.00 0.00 0.01 0.01 0.01 0.01 0.01 0.01 0.01 0.01 0.01 0.01 0.01
0.01 0.02 0.02 0.01 0.01 0.01 0.01 0.00 0.00 0.00 0.00 0.01 0.01 0.01 0.01 0.01 0.01 0.01 0.01 0.01 0.01 0.01 0.01 0.00 0.00 0.01 0.01 0.01 0.01 0.00 0.00 0.00 0.01 0.01 0.01 0.01 0.01 0.01 0.02 0.02 0.01 0.01 0.01
0.01 0.01 0.01 0.01 0.01 0.01 0.00 0.00 0.00 0.00 0.00 0.00 0.01 0.01 0.01 0.01 0.01 0.00 0.00 0.01 0.01 0.01 0.01 0.01 0.00 0.00 0.01 0.01 0.01 0.00 0.00 0.00 0.01 0.01 0.01 0.01 0.01 0.02 0.02 0.02 0.02 0.02 0.02
0.00 0.01 0.01 0.01 0.01 0.02 0.01 0.01 0.00 0.00 0.00 0.00 0.01 0.01 0.01 0.01 0.01 0.00 0.00 0.00 0.00 0.00 0.00 0.01 0.01 0.01 0.01 0.01 0.01 0.01 0.01 0.01 0.01 0.01 0.01 0.01 0.01 0.02 0.02 0.02 0.02 0.02 0.02
0.00 0.00 0.00 0.00 0.01 0.01 0.01 0.01 0.01 0.01 0.00 0.00 0.00 0.01 0.01 0.01 0.01 0.01 0.01 0.00 0.00 0.00 0.00 0.00 0.00 0.01 0.00 0.01 0.01 0.01 0.01 0.01 0.01 0.01 0.02 0.02 0.02 0.02 0.02 0.02 0.02 0.02 0.02
0.00 0.00 0.00 0.00 0.00 0.01 0.01 0.01 0.01 0.01 0.01 0.00 0.00 0.00 0.00 0.00 0.00 0.01 0.01 0.01 0.01 0.01 0.01 0.00 0.00 0.01 0.01 0.00 0.00 0.01 0.01 0.01 0.01 0.02 0.02 0.02 0.02 0.02 0.02 0.02 0.02 0.02 0.02
0.00 0.00 0.00 0.00 0.00 0.00 0.00 0.00 0.00 0.01 0.01 0.01 0.01 0.01 0.00 0.00 0.01 0.01 0.01 0.01 0.01 0.01 0.01 0.01 0.00 0.00 0.01 0.01 0.00 0.00 0.01 0.01 0.01 0.01 0.02 0.02 0.02 0.02 0.02 0.02 0.02 0.02 0.03
0.00 0.00 0.00 0.01 0.01 0.01 0.01 0.01 0.01 0.01 0.01 0.01 0.01 0.01 0.01 0.01 0.01 0.01 0.01 0.01 0.01 0.01 0.00 0.00 0.00 0.00 0.00 0.01 0.01 0.01 0.01 0.01 0.01 0.01 0.01 0.01 0.02 0.02 0.02 0.02 0.02 0.02 0.03
MSLP
1015.86 1016.22 1016.52 1016.76 1016.92 1017.03 1017.11 1017.17 1017.24 1017.33 1017.42 1017.51 1017.56 1017.56 1017.49 1017.36 1017.18 1016.97 1016.76 1016.58 1016.45 1016.38 1016.35 1016.34 1016.33 1016.27 1016.13 1015.91 1015.59 1015.20 1014.75 1014.28 1013.83 1013.42 1013.06 1012.76 1012.51 1012.30 1012.09 1011.89 1011.68 1011.44 1011.20
1015.10 1015.47 1015.80 1016.08 1016.30 1016.47 1016.62 1016.76 1016.90 1017.04 1017.18 1017.29 1017.36 1017.36 1017.29 1017.14 1016.94 1016.72 1016.49 1016.29 1016.15 1016.07 1016.04 1016.04 1016.05 1016.03 1015.94 1015.77 1015.52 1015.20 1014.82 1014.42 1014.01 1013.62 1013.27 1012.95 1012.66 1012.38 1012.10 1011.81 1011.51 1011.19 1010.88
1014.38 1014.74 1015.08 1015.38 1015.64 1015.88 1016.09 1016.30 1016.50 1016.70 1016.88 1017.03 1017.12 1017.14 1017.08 1016.93 1016.73 1016.50 1016.26 1016.06 1015.90 1015.81 1015.77 1015.77 1015.77 1015.76 1015.71 1015.58 1015.39 1015.12 1014.80 1014.45 1014.08 1013.72 1013.37 1013.04 1012.71 1012.38 1012.04 1011.68 1011.29 1010.90 1010.51
1013.73 1014.07 1014.40 1014.71 1015.00 1015.27 1015.53 1015.79 1016.05 1016.30 1016.53 1016.72 1016.84 1016.89 1016.85 1016.72 1016.54 1016.32 1016.09 1015.88 1015.72 1015.61 1015.56 1015.54 1015.54 1015.53 1015.48 1015.37 1015.20 1014.98 1014.70 1014.38 1014.05 1013.71 1013.36 1013.02 1012.67 1012.30 1011.90 1011.48 1011.04 1010.59 1010.15
1013.17 1013.48 1013.78 1014.08 1014.37 1014.66 1014.95 1015.24 1015.54 1015.83 1016.09 1016.32 1016.48 1016.56 1016.56 1016.48 1016.33 1016.14 1015.93 1015.74 1015.59 1015.48 1015.41 1015.37 1015.35 1015.32 1015.26 1015.15 1014.99 1014.78 1014.52 1014.22 1013.91 1013.58 1013.24 1012.89 1012.52 1012.13 1011.71 1011.26 1010.78 1010.30 1009.81
1012.69 1012.96 1013.23 1013.50 1013.77 1014.05 1014.34 1014.65 1014.96 1015.27 1015.57 1015.82 1016.02 1016.15 1016.19 1016.16 1016.06 1015.92 1015.76 1015.60 1015.45 1015.35 1015.27 1015.21 1015.16 1015.11 1015.02 1014.89 1014.72 1014.51 1014.25 1013.96 1013.65 1013.33 1012.99 1012.64 1012.27 1011.88 1011.45 1011.00 1010.52 1010.03 1009.54
1012.25 1012.48 1012.70 1012.94 1013.18 1013.44 1013.71 1014.01 1014.32 1014.63 1014.94 1015.22 1015.44 1015.61 1015.71 1015.73 1015.69 1015.61 1015.50 1015.38 1015.27 1015.17 1015.09 1015.01 1014.94 1014.85 1014.73 1014.57 1014.38 1014.15 1013.88 1013.59 1013.29 1012.96 1012.64 1012.29 1011.94 1011.56 1011.15 1010.72 1010.27 1009.79 1009.30
1011.81 1011.99 1012.18 1012.37 1012.58 1012.80 1013.04 1013.32 1013.61 1013.91 1014.22 1014.51 1014.76 1014.96 1015.11 1015.19 1015.22 1015.20 1015.15 1015.07 1014.99 1014.91 1014.82 1014.73 1014.63 1014.51 1014.36 1014.17 1013.96 1013.70 1013.43 1013.13 1012.82 1012.51 1012.19 1011.87 1011.53 1011.18 1010.81 1010.42 1010.00 1009.56 1009.09
1011.32 1011.46 1011.61 1011.77 1011.94 1012.12 1012.34 1012.58 1012.85 1013.14 1013.44 1013.73 1014.00 1014.24 1014.43 1014.56 1014.65 1014.69 1014.69 1014.66 1014.61 1014.54 1014.46 1014.35 1014.23 1014.08 1013.91 1013.70 1013.46 1013.20 1012.91 1012.61 1012.31 1012.00 1011.70 1011.40 1011.09 1010.77 1010.44 1010.09 1009.71 1009.30 1008.86
1010.74 1010.86 1010.98 1011.11 1011.25 1011.41 1011.60 1011.82 1012.07 1012.35 1012.64 1012.94 1013.23 1013.49 1013.72 1013.90 1014.04 1014.13 1014.17 1014.18 1014.15 1014.10 1014.01 1013.91 1013.77 1013.61 1013.42 1013.20 1012.95 1012.68 1012.40 1012.10 1011.80 1011.51 1011.21 1010.92 1010.64 1010.34 1010.04 1009.72 1009.37 1008.99 1008.56
1010.07 1010.18 1010.29 1010.40 1010.53 1010.68 1010.86 1011.07 1011.31 1011.58 1011.88 1012.18 1012.49 1012.78 1013.04 1013.26 1013.43 1013.56 1013.64 1013.67 1013.66 1013.62 1013.54 1013.43 1013.29 1013.12 1012.93 1012.71 1012.47 1012.21 1011.94 1011.65 1011.36 1011.07 1010.78 1010.49 1010.21 1009.92 1009.62 1009.30 1008.96 1008.58 1008.14
1009.33 1009.44 1009.55 1009.67 1009.80 1009.95 1010.13 1010.35 1010.59 1010.88 1011.18 1011.51 1011.83 1012.14 1012.43 1012.68 1012.88 1013.03 1013.13 1013.19 1013.19 1013.15 1013.08 1012.98 1012.85 1012.69 1012.51 1012.31 1012.09 1011.84 1011.59 1011.31 1011.03 1010.73 1010.43 1010.12 1009.82 1009.50 1009.18 1008.83 1008.46 1008.05 1007.60
1008.55 1008.68 1008.80 1008.93 1009.08 1009.25 1009.45 1009.68 1009.95 1010.25 1010.58 1010.93 1011.28 1011.61 1011.92 1012.18 1012.40 1012.57 1012.68 1012.74 1012.76 1012.73 1012.67 1012.58 1012.47 1012.34 1012.19 1012.02 1011.82 1011.60 1011.36 1011.10 1010.81 1010.50 1010.17 1009.82 1009.46 1009.09 1008.71 1008.30 1007.88 1007.42 1006.92
1007.78 1007.92 1008.07 1008.22 1008.39 1008.59 1008.82 1009.08 1009.38 1009.72 1010.08 1010.45 1010.82 1011.17 1011.49 1011.77 1011.99 1012.17 1012.29 1012.36 1012.38 1012.37 1012.33 1012.27 1012.19 1012.09 1011.97 1011.84 1011.68 1011.48 1011.26 1010.99 1010.68 1010.34 1009.96 1009.56 1009.12 1008.67 1008.20 1007.71 1007.20 1006.67 1006.10
1007.04 1007.20 1007.37 1007.55 1007.75 1007.98 1008.24 1008.54 1008.88 1009.25 1009.64 1010.03 1010.42 1010.79 1011.12 1011.40 1011.63 1011.81 1011.93 1012.01 1012.05 1012.06 1012.05 1012.02 1011.97 1011.92 1011.84 1011.74 1011.61 1011.44 1011.22 1010.94 1010.61 1010.22 1009.78 1009.29 1008.76 1008.21 1007.64 1007.05 1006.45 1005.83 1005.19
1006.36 1006.54 1006.73 1006.93 1007.15 1007.41 1007.71 1008.04 1008.42 1008.81 1009.23 1009.65 1010.05 1010.43 1010.76 1011.05 1011.29 1011.47 1011.60 1011.70 1011.75 1011.79 1011.81 1011.82 1011.81 1011.80 1011.76 1011.69 1011.58 1011.41 1011.19 1010.88 1010.51 1010.06 1009.54 1008.96 1008.34 1007.68 1007.00 1006.31 1005.61 1004.91 1004.20
1005.74 1005.93 1006.13 1006.34 1006.59 1006.88 1007.20 1007.56 1007.97 1008.39 1008.83 1009.26 1009.68 1010.06 1010.41 1010.70 1010.94 1011.13 1011.28 1011.39 1011.48 1011.55 1011.60 1011.65 1011.68 1011.70 1011.68 1011.63 1011.52 1011.35 1011.09 1010.75 1010.32 1009.80 1009.20 1008.53 1007.81 1007.06 1006.28 1005.49 1004.70 1003.92 1003.16
1005.17 1005.36 1005.57 1005.80 1006.06 1006.36 1006.71 1007.09 1007.52 1007.96 1008.42 1008.87 1009.29 1009.69 1010.04 1010.34 1010.60 1010.81 1010.98 1011.12 1011.24 1011.34 1011.43 1011.50 1011.56 1011.59 1011.59 1011.53 1011.41 1011.20 1010.90 1010.51 1010.01 1009.42 1008.74 1007.98 1007.18 1006.33 1005.47 1004.60 1003.74 1002.90 1002.08
1004.67 1004.85 1005.06 1005.29 1005.56 1005.87 1006.23 1006.64 1007.08 1007.54 1008.01 1008.47 1008.91 1009.32 1009.68 1010.00 1010.28 1010.52 1010.72 1010.90 1011.05 1011.18 1011.30 1011.39 1011.46 1011.49 1011.47 1011.38 1011.22 1010.96 1010.60 1010.14 1009.57 1008.90 1008.14 1007.32 1006.43 1005.52 1004.58 1003.65 1002.73 1001.83 1000.96
1004.23 1004.40 1004.60 1004.83 1005.10 1005.42 1005.80 1006.22 1006.67 1007.14 1007.63 1008.10 1008.56 1008.99 1009.38 1009.73 1010.04 1010.31 1010.55 1010.76 1010.94 1011.10 1011.23 1011.32 1011.38 1011.38 1011.32 1011.18 1010.96 1010.63 1010.20 1009.66 1009.01 1008.27 1007.45 1006.56 1005.61 1004.64 1003.64 1002.66 1001.68 1000.74 999.83
1003.87 1004.03 1004.21 1004.44 1004.72 1005.05 1005.43 1005.86 1006.33 1006.82 1007.32 1007.81 1008.29 1008.74 1009.17 1009.55 1009.90 1010.21 1010.49 1010.73 1010.94 1011.10 1011.23 1011.31 1011.33 1011.28 1011.16 1010.95 1010.64 1010.23 1009.72 1009.10 1008.38 1007.57 1006.69 1005.74 1004.75 1003.73 1002.69 1001.66 1000.63 999.64 998.67
1003.61 1003.75 1003.93 1004.15 1004.44 1004.77 1005.17 1005.61 1006.09 1006.59 1007.11 1007.63 1008.13 1008.62 1009.07 1009.50 1009.88 1010.23 1010.54 1010.80 1011.02 1011.19 1011.29 1011.33 1011.30 1011.19 1010.99 1010.68 1010.29 1009.79 1009.19 1008.49 1007.71 1006.85 1005.92 1004.93 1003.89 1002.83 1001.76 1000.67 999.60 998.54 997.51
1003.47 1003.60 1003.77 1004.00 1004.29 1004.64 1005.04 1005.49 1005.98 1006.50 1007.04 1007.57 1008.10 1008.62 1009.11 1009.56 1009.98 1010.36 1010.68 1010.96 1011.17 1011.31 1011.38 1011.37 1011.26 1011.07 1010.78 1010.38 1009.89 1009.31 1008.63 1007.87 1007.03 1006.13 1005.16 1004.14 1003.08 1001.99 1000.87 999.74 998.61 997.48 996.38
1003.45 1003.58 1003.75 1003.99 1004.28 1004.64 1005.05 1005.52 1006.02 1006.55 1007.09 1007.65 1008.20 1008.73 1009.24 1009.72 1010.15 1010.54 1010.87 1011.13 1011.32 1011.43 1011.44 1011.36 1011.18 1010.89 1010.51 1010.03 1009.46 1008.80 1008.06 1007.25 1006.37 1005.44 1004.45 1003.41 1002.33 1001.21 1000.06 998.88 997.69 996.50 995.31
1003.55 1003.68 1003.87 1004.11 1004.41 1004.78 1005.20 1005.67 1006.17 1006.71 1007.26 1007.82 1008.37 1008.91 1009.43 1009.91 1010.35 1010.72 1011.04 1011.27 1011.42 1011.47 1011.42 1011.26 1011.00 1010.64 1010.18 1009.62 1008.98 1008.26 1007.48 1006.64 1005.74 1004.79 1003.80 1002.75 1001.66 1000.53 999.35 998.13 996.88 995.62 994.36
1003.75 1003.89 1004.09 1004.35 1004.66 1005.04 1005.46 1005.93 1006.43 1006.96 1007.51 1008.06 1008.60 1009.13 1009.64 1010.10 1010.51 1010.86 1011.14 1011.33 1011.42 1011.41 1011.28 1011.06 1010.72 1010.29 1009.76 1009.14 1008.45 1007.70 1006.89 1006.04 1005.14 1004.20 1003.21 1002.17 1001.08 999.94 998.75 997.50 996.21 994.89 993.57
Thickness
5551 5552 5552 5553 5553 5554 5555 5557 5558 5558 5559 5561 5562 5563 5565 5566 5566 5566 5567 5566 5566 5565 5564 5564 5563 5561 5561 5559 5558 5557 5556 5555 5555 5556 5553 5551 5548 5548 5547 5546 5545 5545 5545
5547 5547 5547 5547 5547 5548 5549 5549 5550 5551 5551 5553 5554 5555 5556 5557 5557 5558 5558 5558 5558 5557 5556 5555 5553 5552 5551 5550 5549 5548 5547 5546 5545 5546 5544 5541 5540 5539 5538 5538 5538 5537 5536
5542 5542 5542 5543 5542 5542 5543 5542 5542 5543 5543 5544 5545 5546 5548 5548 5549 5550 5550 5550 5549 5548 5547 5545 5544 5543 5542 5541 5541 5540 5538 5537 5536 5536 5536 5534 5532 5530 5530 5530 5529 5529 5528
5537 5537 5538 5538 5537 5537 5536 5535 5535 5535 5535 5536 5537 5538 5539 5540 5540 5540 5541 5541 5540 5539 5538 5537 5537 5536 5534 5533 5532 5531 5530 5529 5528 5528 5528 5526 5524 5522 5520 5520 5521 5520 5519
5533 5533 5534 5533 5531 5530 5529 5528 5528 5527 5528 5528 5529 5529 5530 5531 5532 5532 5532 5532 5531 5531 5530 5529 5528 5526 5525 5524 5523 5522 5520 5520 5519 5519 5519 5518 5516 5514 5511 5510 5509 5510 5510
5530 5530 5529 5527 5525 5524 5523 5522 5521 5521 5521 5521 5521 5522 5522 5523 5523 5523 5523 5523 5523 5522 5521 5520 5519 5517 5515 5514 5513 5511 5510 5511 5510 5510 5509 5508 5507 5504 5501 5499 5498 5498 5501
5526 5525 5524 5522 5521 5519 5517 5516 5516 5515 5515 5515 5515 5516 5516 5516 5515 5515 5515 5516 5515 5514 5513 5512 5511 5509 5507 5506 5505 5503 5501 5500 5499 5499 5499 5498 5496 5493 5491 5490 5487 5485 5486
5522 5521 5519 5517 5516 5514 5513 5512 5510 5510 5509 5509 5509 5509 5510 5510 5508 5508 5508 5507 5507 5506 5505 5504 5503 5502 5500 5498 5497 5496 5495 5493 5491 5489 5488 5487 5484 5482 5480 5478 5476 5475 5476
5518 5517 5515 5513 5511 5510 5508 5507 5506 5504 5504 5503 5503 5503 5503 5503 5501 5501 5500 5500 5500 5499 5497 5496 5495 5494 5492 5490 5489 5488 5487 5485 5482 5480 5478 5476 5474 5471 5469 5467 5466 5465 5469
5515 5513 5511 5508 5507 5506 5505 5503 5500 5499 5498 5497 5496 5496 5496 5496 5495 5493 5493 5494 5493 5492 5490 5488 5486 5485 5483 5482 5481 5480 5479 5478 5475 5473 5470 5468 5466 5463 5460 5457 5455 5454 5455
5509 5507 5505 5503 5502 5501 5499 5497 5495 5493 5492 5491 5490 5489 5489 5488 5487 5486 5485 5486 5485 5484 5483 5481 5479 5476 5474 5473 5472 5472 5470 5468 5467 5464 5462 5460 5457 5455 5452 5448 5446 5443 5443
5502 5500 5500 5498 5497 5495 5493 5491 5489 5488 5486 5485 5484 5483 5482 5481 5480 5479 5478 5477 5477 5476 5475 5473 5471 5467 5466 5464 5463 5462 5459 5457 5456 5454 5452 5450 5447 5444 5442 5439 5437 5435 5434
5496 5495 5494 5492 5491 5489 5487 5485 5483 5482 5481 5480 5479 5478 5476 5474 5473 5471 5470 5469 5467 5467 5466 5464 5461 5458 5456 5455 5453 5451 5449 5448 5446 5443 5441 5439 5436 5433 5432 5430 5429 5428 5427
5490 5490 5488 5486 5485 5483 5481 5479 5478 5477 5475 5474 5473 5472 5470 5467 5466 5464 5463 5461 5459 5457 5456 5454 5451 5449 5447 5445 5443 5441 5439 5437 5435 5433 5431 5429 5426 5424 5422 5421 5420 5419 5420
5484 5483 5482 5480 5479 5477 5475 5474 5473 5472 5471 5470 5468 5466 5463 5462 5460 5457 5456 5454 5452 5450 5447 5445 5443 5441 5439 5436 5434 5431 5429 5426 5424 5422 5420 5419 5417 5415 5413 5411 5409 5409 5410
5477 5477 5476 5474 5472 5470 5469 5466 5463 5462 5461 5459 5459 5457 5456 5454 5451 5448 5446 5444 5441 5439 5437 5436 5434 5432 5430 5428 5425 5423 5420 5417 5414 5412 5410 5409 5407 5405 5404 5402 5401 5400 5401
5471 5470 5469 5468 5466 5464 5462 5460 5458 5454 5451 5450 5449 5448 5446 5444 5442 5439 5437 5434 5432 5430 5429 5427 5425 5423 5420 5417 5415 5413 5411 5408 5404 5402 5400 5398 5397 5395 5394 5394 5393 5393 5394
5463 5462 5461 5461 5459 5457 5455 5453 5452 5450 5446 5444 5441 5439 5438 5436 5433 5431 5428 5425 5424 5422 5420 5419 5417 5414 5411 5408 5406 5403 5401 5398 5396 5393 5391 5389 5387 5386 5386 5386 5385 5385 5386
5454 5454 5453 5452 5450 5448 5446 5445 5444 5442 5440 5438 5435 5432 5430 5427 5424 5422 5420 5419 5417 5415 5412 5410 5408 5405 5402 5399 5397 5394 5392 5389 5387 5384 5382 5380 5378 5377 5377 5377 5377 5377 5377
5445 5444 5443 5443 5442 5440 5439 5437 5436 5434 5432 5430 5429 5427 5423 5419 5417 5415 5412 5411 5409 5406 5404 5401 5399 5396 5394 5391 5388 5385 5382 5380 5378 5376 5374 5372 5370 5369 5369 5368 5369 5369 5369
5437 5436 5433 5433 5433 5432 5431 5430 5429 5426 5425 5424 5422 5420 5417 5414 5412 5409 5406 5403 5401 5398 5396 5393 5391 5388 5385 5382 5379 5376 5374 5372 5369 5367 5365 5363 5362 5361 5360 5360 5360 5360 5360
5427 5427 5426 5425 5424 5424 5423 5422 5421 5419 5418 5416 5414 5411 5408 5406 5404 5401 5399 5396 5394 5391 5388 5385 5383 5380 5377 5374 5371 5368 5365 5363 5361 5358 5357 5355 5353 5352 5351 5351 5351 5351 5351
5417 5417 5417 5416 5415 5414 5413 5413 5412 5411 5409 5408 5406 5403 5400 5399 5397 5394 5392 5389 5386 5382 5380 5377 5375 5372 5369 5366 5363 5360 5358 5356 5353 5350 5348 5347 5345 5344 5343 5343 5342 5342 5341
5408 5408 5408 5407 5406 5406 5406 5405 5404 5402 5401 5400 5398 5395 5393 5391 5389 5386 5384 5381 5378 5375 5372 5369 5367 5364 5361 5358 5355 5352 5350 5347 5344 5342 5340 5339 5337 5336 5335 5334 5333 5332 5332
5400 5400 5399 5399 5398 5398 5398 5397 5396 5395 5393 5391 5390 5388 5386 5384 5381 5379 5376 5373 5370 5367 5364 5362 5359 5356 5353 5351 5348 5345 5342 5339 5337 5334 5332 5330 5329 5328 5326 5325 5324 5323 5323
5392 5392 5392 5391 5391 5391 5390 5389 5388 5387 5386 5384 5382 5380 5378 5376 5374 5371 5368 5365 5362 5359 5357 5354 5352 5349 5346 5343 5340 5337 5335 5332 5329 5327 5325 5323 5321 5320 5318 5317 5316 5315 5315